Main page
METAR-TAF:

METAR-TAF

Airports :

Dharamsala, India

Gaggal Airport

latitude: 32-09-54N, longitude: 76-15-48E, elevation: 770 m

Current weather observation

The report was made 5 hours and 54 minutes ago, at 11:30 UTC
Wind 4 kt from the South/Southwest
Temperature 33°C
Humidity 44%
Pressure 1004 hPa
Visibility: 8000 m
Few clouds at a height of 3500 ft

METAR: VIGG 231130Z 21004KT 8000 FEW035 33/19 Q1004

Time: 22:54 (17:24 UTC)


TAF: missing

Weather observations and forecasts of more than 4000 airports (METAR and TAF reports).

The available stations are represented by yellow and red dots on the map.

Hover mouse over dot to see the name of the station.

Then click to see weather observations and forecasts.

To change the map : click on the green buttons with a black cross to zoom in, on the green button with a dash to zoom out, or on the green arrows for adjacent maps.


METAR-TAF: